Weather History for Scarborough, Trinidad And Tobago

Change the Weather History Date:

Thursday, January 2, 2014

  Actual Average Record
Temperature  
Mean Temperature 80 °F -  
Max Temperature 86 °F 84 °F 87 °F (1997)
Min Temperature 75 °F 74 °F 73 °F (2000)
Cooling Degree Days 16    
Growing Degree Days 30 (Base 50)    
Moisture  
Dew Point 71 °F    
Average Humidity 76    
Maximum Humidity 89    
Minimum Humidity 62    
Precipitation  
Precipitation 0.00 in - - ()
Sea Level Pressure  
Sea Level Pressure 29.90 in    
Wind  
Wind Speed 11 mph ()    
Max Wind Speed 24 mph    
Max Gust Speed -    
Visibility 6.0 miles    
Events Rain    
Averages and records for this station are not official NWS values.
T = Trace of Precipitation, MM = Missing Value Source: Averaged Metar Reports

Daily Weather History Graph

Daily Weather History Graph

Search for Another Location

Airport:

Trip Planner

Search our weather history database for the weather conditions in past years. The results will help you decide how hot, cold, wet, or windy it might be!

Date:

Astronomy

Jan. 02, 2014 Rise Set
Actual Time 6:22 AM AST 5:52 PM AST
Civil Twilight 5:59 AM AST 6:15 PM AST
Nautical Twilight 5:33 AM AST 6:41 PM AST
Astronomical Twilight 5:07 AM AST 7:07 PM AST
Moon 7:18 AM AST (1/2) 7:21 PM AST (1/2)
Length of Visible Light 12h 15m
Length of Day
11h 29m
New Moon, 2% of the Moon is Illuminated
Jan 2
New Moon
Jan 7
First Quarter
Jan 16
Full
Jan 24
Last Quarter
Jan 30
New

Hourly Weather History & Observations

Time (AST) Temp. Heat Index Dew Point Humidity Pressure Visibility Wind Dir Wind Speed Gust Speed Precip Events Conditions
12:00 AM 77.0 °F - 71.6 °F 83% 29.92 in 6.2 mi ENE 5.8 mph - N/A   Scattered Clouds
1:00 AM 75.2 °F - 71.6 °F 89% 29.92 in 1.9 mi NE 12.7 mph - N/A Rain Rain Showers
2:00 AM 75.2 °F - 71.6 °F 89% 29.89 in 6.2 mi ENE 11.5 mph - N/A   Scattered Clouds
3:00 AM 75.2 °F - 69.8 °F 83% 29.86 in 6.2 mi NE 8.1 mph - N/A   Scattered Clouds
4:00 AM 75.2 °F - 69.8 °F 83% 29.86 in 6.2 mi ENE 6.9 mph - N/A   Scattered Clouds
5:00 AM 77.0 °F - 69.8 °F 78% 29.86 in 6.2 mi ENE 10.4 mph - N/A   Scattered Clouds
6:00 AM 77.0 °F - 69.8 °F 78% 29.89 in 6.2 mi ENE 5.8 mph - N/A   Scattered Clouds
7:00 AM 77.0 °F - 69.8 °F 78% 29.92 in 6.2 mi East 9.2 mph - N/A   Scattered Clouds
8:00 AM 80.6 °F 85.4 °F 73.4 °F 79% 29.95 in 6.2 mi ENE 13.8 mph - N/A   Partly Cloudy
9:00 AM 82.4 °F 87.2 °F 71.6 °F 70% 29.95 in 6.2 mi East 18.4 mph - N/A   Partly Cloudy
10:00 AM 84.2 °F 89.6 °F 71.6 °F 66% 29.95 in 6.2 mi East 19.6 mph - N/A   Partly Cloudy
11:00 AM 84.2 °F 88.4 °F 69.8 °F 62% 29.95 in 6.2 mi East 20.7 mph - N/A   Partly Cloudy
12:00 PM 84.2 °F 89.6 °F 71.6 °F 66% 29.92 in 6.2 mi East 24.2 mph - N/A   Partly Cloudy
1:00 PM 84.2 °F 89.6 °F 71.6 °F 66% 29.89 in 6.2 mi East 24.2 mph - N/A   Partly Cloudy
2:00 PM 86.0 °F 93.4 °F 73.4 °F 66% 29.89 in 6.2 mi East 23.0 mph - N/A   Partly Cloudy
3:00 PM 84.2 °F 90.9 °F 73.4 °F 70% 29.86 in 6.2 mi East 23.0 mph - N/A   Partly Cloudy
4:00 PM 84.2 °F 89.6 °F 71.6 °F 66% 29.86 in 6.2 mi East 20.7 mph - N/A   Partly Cloudy
5:00 PM 82.4 °F 87.2 °F 71.6 °F 70% 29.86 in 6.2 mi East 17.3 mph - N/A   Partly Cloudy
6:00 PM 80.6 °F 84.6 °F 71.6 °F 74% 29.86 in 6.2 mi East 15.0 mph - N/A   Scattered Clouds
7:00 PM 78.8 °F - 69.8 °F 74% 29.89 in 6.2 mi ENE 9.2 mph - N/A   Scattered Clouds
8:00 PM 78.8 °F - 73.4 °F 83% 29.92 in 6.2 mi ENE 8.1 mph - N/A   Scattered Clouds
9:00 PM 77.0 °F - 71.6 °F 83% 29.92 in 6.2 mi ENE 6.9 mph - N/A Rain Light Rain Showers
10:00 PM 77.0 °F - 71.6 °F 83% 29.92 in 6.2 mi ENE 11.5 mph - N/A   Partly Cloudy
11:00 PM 77.0 °F - 69.8 °F 78% - 6.2 mi East 11.5 mph - N/A   Partly Cloudy